Regional Weather Roundup
Issued by NWS

Home | Current Version | Previous Version | Text Only | Print | Product List | Glossary Off
Versions: 1 2 3 4 5 6 7 8 9 10 11 12 13 14 15 16 17 18 19 20 21 22 23 24 25 26 27 28 29 30 31 32 33 34 35 36 37 38 39 40 41 42 43 44 45 46 47 48 49 50

000
ASUS43 KMPX 020910
RWRMN
WEATHER ROUNDUP FOR MINNESOTA
NATIONAL WEATHER SERVICE TWIN CITIES/CHANHASSEN MN
400 AM CDT SUN AUG 02 2015


NOTE: "FAIR" INDICATES FEW OR NO CLOUDS BELOW 12,000 FEET WITH NO
SIGNIFICANT WEATHER AND/OR OBSTRUCTIONS TO VISIBILITY. N/A MEANS
CURRENT SKY AND/OR WEATHER CONDITIONS ARE NOT AVAILABLE.

MNZ060>063-068>070-021000-
   Twin Cities Metro

CITY           SKY/WX    TMP DP  RH WIND       PRES   REMARKS
TWIN CITIES    CLEAR     74  64  71 SW7       29.70F
ST PAUL        CLEAR     73  65  75 SW3       29.70F
CRYSTAL        CLEAR     74  65  73 SW10      29.67F
BLAINE         CLEAR     73  66  78 SW10      29.68F
LAKEVILLE      CLEAR     72  64  78 SW7       29.71F
EDEN PRAIRIE   CLEAR     71  65  81 SW9       29.69F
SOUTH ST PAUL  CLEAR     74  63  69 SW6       29.70F
LAKE ELMO      FAIR      72  64  78 SW7       29.71F
$$
MNZ001>005-007-008-013>017-022>024-027-028-021000-
   Northwest Minnesota

CITY           SKY/WX    TMP DP  RH WIND       PRES   REMARKS
BEMIDJI        MOCLDY    63  58  83 CALM      29.68F
HALLOCK        MOCLDY    63  61  94 N10       29.64F
ROSEAU         MOCLDY    61  55  82 CALM      29.66F
WARROAD        MOCLDY    61  55  82 NW7       29.66F
THIEF RVR FALL MOCLDY    64  57  77 NE3       29.66F
CROOKSTON      MOCLDY    66  61  82 E3        29.65F
FOSSTON        MOCLDY    61  57  88 CALM      29.69F
DETROIT LAKES  MOCLDY    66  64  94 NE3       29.68S
MOORHEAD       MOCLDY    66  64  94 E3        29.63F
PARK RAPIDS    MOCLDY    65  62  90 N3        29.67F
MAHNOMEN       FAIR      65  62  92 NE8       29.67S
$$
MNZ006-009>011-018-025>026-021000-
   North Central Minnesota

CITY           SKY/WX    TMP DP  RH WIND       PRES   REMARKS
BAUDETTE       MOCLDY    60  57  89 NW5       29.65F
FLAG ISLAND    MOCLDY    66  57  72 N8        29.65F
INTL FALLS     CLOUDY    61  59  93 NW7       29.66S
WASKISH        LGT RAIN  66  57  72 W9G17     29.67F
BIG FORK       CLOUDY    61  55  82 CALM      29.68F
LONGVILLE      CLOUDY    63  61  94 CALM      29.66F
GRAND RAPIDS   CLOUDY    64  57  77 N3        29.70R
CRANE LAKE     CLOUDY    57  57 100 S2        29.66F
ORR            DRIZZLE   63  55  77 W10G23    29.65R
COOK           CLOUDY    61  57  88 CALM      29.69F
WALKER         FAIR      64  60  86 CALM      29.68R
$$
MNZ012-019>021-037-021000-
   Northeast Minnesota

CITY           SKY/WX    TMP DP  RH WIND       PRES   REMARKS
DULUTH         MOCLDY    69  61  75 W6        29.68R
ELY            LGT RAIN  61  55  82 CALM      29.67F
HIBBING        CLOUDY    67  55  65 N8        29.70F
EVELETH        CLOUDY    64  54  68 N5G18     29.71F
DULUTH HARBOR  MOCLDY    70  63  78 SW5       29.66R
TWO HARBORS    CLOUDY    72  64  78 CALM      29.65S
SILVER BAY       N/A     70  55  60 NW8G20    29.68R
GRAND MARAIS     N/A     57  54  89 CALM      29.65R
G MARAIS ARPRT TSTM      59  54  82 W3        29.71R
$$
MNZ029>031-032-039>041-046>048-054>057-064-021000-
   West Central Minnesota

CITY           SKY/WX    TMP DP  RH WIND       PRES   REMARKS
FERGUS FALLS   PTCLDY    68  66  94 CALM      29.65S
WHEATON        PTCLDY    66  64  94 SW5       29.67S
MORRIS         PTCLDY    66  64  94 W7        29.67R
ALEXANDRIA     PTCLDY    67  64  90 SW7       29.69R
ELBOW LAKE     FAIR      65  64  96 SE5       29.66F
WADENA         LGT RAIN  64  64 100 CALM      29.67R
GLENWOOD       CLEAR     66  63  88 CALM      29.69R
APPLETON       PTCLDY    66  63  88 W8        29.68R
BENSON         CLEAR     64  61  88 CALM      29.67R
ORTONVILLE     PTCLDY    68  63  83 W3        29.68R
MADISON        PTCLDY    70  61  73 W6        29.69R
WILLMAR        FAIR      66  64  94 CALM      29.66F
$$
MNZ033>034-036-042>043-049>051-058-059-021000-
   Central Minnesota

CITY           SKY/WX    TMP DP  RH WIND       PRES   REMARKS
ST CLOUD       CLEAR     67  65  93 S9        29.63F
SAUK CENTRE    FAIR      67  63  86 NW12G25   29.69R
PAYNESVILLE    CLEAR     65  63  91 SE10      29.65F
AITKIN         MOCLDY    66  61  82 CALM      29.65F
PINE RIVER     MOCLDY    64  63  94 SW5       29.71S
BRAINERD       MOCLDY    68  66  93 W3        29.66S
STAPLES        MOCLDY    64  64 100 CALM      29.67S
LONG PRAIRIE   FAIR      64  63  94 S5        29.68R
LITTLE FALLS   PTCLDY    68  63  83 E3        29.66R
LITCHFIELD     CLEAR     70  66  88 S6        29.67F
BUFFALO        CLEAR     69  64  84 S7        29.68F
MAPLE LAKE     CLEAR     68  66  94 S7        29.67F
$$
MNZ037-044-045-052-053-021000-
   East Central Minnesota

CITY           SKY/WX    TMP DP  RH WIND       PRES   REMARKS
PRINCETON      CLEAR     70  64  83 S8        29.64F
MORA           CLEAR     68  63  83 S3        29.65F
CAMBRIDGE      CLEAR     72  61  68 S8        29.62F
RUSH CITY      CLEAR     69  64  82 S6        29.64F
MOOSE LAKE     FAIR      61  61 100 CALM      29.66R
HINCKLEY       FAIR      63  63 100 CALM      29.65S
CLOQUET        MOCLDY    66  61  82 CALM      29.68S
MCGREGOR       PTCLDY    64  63  94 CALM      29.69R
$$
MNZ071>073-080-081-089-090-097-098-021000-
   Southwest Minnesota

CITY           SKY/WX    TMP DP  RH WIND       PRES   REMARKS
MONTEVIDEO     PTCLDY    68  63  83 W6        29.69R
GRANITE FALLS  CLEAR     67  63  85 S8        29.68F
CANBY          CLEAR     71  61  70 SW16      29.71R
MARSHALL       CLEAR     70  61  73 SW17      29.70F
REDWOOD FALLS  CLEAR     69  64  84 S13       29.68F
OLIVIA         CLEAR     64  61  88 S8        29.67F
PIPESTONE      CLEAR     64  63  94 SW7       29.78R
WINDOM         CLEAR     70  63  78 SW7       29.77F
WORTHINGTON    CLEAR     70  61  73 SW14G20   29.79F
JACKSON        CLEAR     70  64  83 SW13G18   29.79F
TRACY          CLEAR     70  64  83 SW16G22   29.71F
SLAYTON        CLEAR     67  63  86 S9        29.75F
$$
MNZ065>067-074>077-082>085-091>093-021000-
   South Central Minnesota

CITY           SKY/WX    TMP DP  RH WIND       PRES   REMARKS
MANKATO        PTCLDY    72  63  73 SW10      29.73F
NEW ULM        CLEAR     72  63  73 SW10      29.71F
ST JAMES       CLEAR     72  64  78 S9        29.75F
FAIRMONT       PTCLDY    72  61  68 SW12      29.76F
GLENCOE        CLEAR     68  66  93 S5        29.70F
FARIBAULT      PTCLDY    70  64  83 SW6       29.74F
OWATONNA       MOCLDY    70  64  83 S8        29.75F
WASECA         MOCLDY    68  63  83 SW9       29.76F
ALBERT LEA     MOCLDY    72  64  78 SW9G17    29.77F
$$
MNZ078>079-086>088-094>096-021000-
   Southeast Minnesota

CITY           SKY/WX    TMP DP  RH WIND       PRES   REMARKS
ROCHESTER      PTCLDY    70  67  90 SW16      29.77F
RED WING       CLEAR     73  64  73 SW10      29.70F
STANTON        PTCLDY    71  64  80 S5        29.71F
DODGE CENTER   PTCLDY    68  64  88 SW10      29.77F
WINONA         CLEAR     73  68  83 SW7       29.74F
AUSTIN         CLOUDY    72  66  83 S7        29.79F
PRESTON        PTCLDY    69  66  91 SW12      29.80S
$$
ABBREVIATIONS USED IN REMARKS
   TC - TEMPERATURES IN CELSIUS
  WCI - WIND CHILL INDEX
   HX - HEAT INDEX
  VSB - VISIBILITY
$$


USA.gov is the U.S. government's official web portal to all federal, state and local government web resources and services.